[[{"header":{"parameterUnit":"m.s-1","parameterCategory":1,"la1":30.2991,"la2":30.254,"lo1":-89.0895,"lo2":-89.0444,"dy":0.0017,"dx":0.0017,"nx":28,"ny":28,"refTime":"2025-03-20T03:00:00:Z","depth":0,"parameterNumber":2,"parameterNumberName":"U-component_of_WINDS"},"data":[0,0,0,0,0,0,0,0,0,0,0,0,0,0,0,0,0,0,0,0,0,0,0,0,0,0,0,0,0,0,0,0,0,0,0,0,0,0,0,0,0,0,0,0,0,0,0,0,0,0,0,0,0,0,0,0,0,0,6.0397,6.0398,0,6.0468,6.0469,6.0469,6.0431,6.0429,6.0427,6.0425,6.0496,6.05,6.0503,0,0,0,0,0,0,0,0,0,0,0,0,0,6.0229,6.0232,6.0397,6.0398,6.0399,6.0468,6.0469,6.047,6.0431,6.0429,6.0426,6.0424,6.0495,6.0499,6.0504,0,0,0,0,0,0,0,0,0,0,0,0,0,6.0301,6.0233,6.0397,6.0388,6.0388,6.0468,6.0469,6.047,6.0432,6.0429,6.0426,6.0423,6.0493,6.0499,6.0504,6.0596,0,0,6.0521,6.0524,0,0,0,0,0,0,0,0,6.0297,6.0307,6.0388,6.0389,6.0389,6.0438,6.0435,6.0512,6.0432,6.0415,6.0425,6.0422,6.0479,6.0485,6.0505,6.06,6.0603,6.0522,6.0525,6.0527,6.0529,0,0,0,0,0,0,0,6.0292,6.0304,6.0425,6.039,6.039,6.0381,6.0388,6.045,6.0462,6.0416,6.0414,6.0423,6.0478,6.05,6.0506,6.0604,6.0521,6.0526,6.053,6.0532,6.078,6.0784,0,0,0,0,0,0,6.0288,6.03,6.0423,6.0427,6.0335,6.0386,6.0394,6.0425,6.0461,6.0464,6.0425,6.0421,6.0492,6.05,6.0509,6.0621,6.0527,6.0532,6.0536,6.0777,6.0781,6.0785,0,0,0,0,0,0,6.0284,6.0299,6.042,6.0363,6.0378,6.0392,6.0427,6.0428,6.0449,6.0468,6.047,6.0445,6.049,6.0501,6.0576,6.0622,6.0535,6.054,6.0773,6.0778,6.0783,6.0844,0,0,0,0,0,0,6.0279,6.0298,6.0333,6.0364,6.0381,6.0485,6.043,6.0431,6.0459,6.0454,6.0487,6.049,6.0488,6.0568,6.0581,6.0629,6.0544,6.0769,6.0776,6.0781,6.0838,6.0851,6.0861,0,0,0,0,0,6.0274,6.0346,6.0335,6.035,6.0425,6.0488,6.0498,6.0495,6.0463,6.0498,6.0511,6.0489,6.0615,6.0576,6.059,6.064,6.0766,6.0774,6.0781,6.0833,6.0848,6.0861,0,0,0,0,0,0,6.0318,6.035,6.0337,6.0422,6.0453,6.0482,6.0526,6.0511,6.0551,6.0545,6.0539,6.0547,6.0626,6.064,6.0595,6.0733,6.0686,6.0697,6.072,6.0735,6.0746,6.0741,6.0549,0,0,0,0,0,6.0338,6.0387,6.0412,6.0485,6.0501,6.0511,6.0539,6.0534,6.0566,6.0578,6.0596,6.0628,6.0675,6.0705,6.075,6.084,6.0848,6.0882,6.0894,6.0903,6.0913,6.0964,6.098,6.0809,6.0809,6.0809,0,0,6.0379,6.0403,6.0434,6.0494,6.0518,6.0569,6.0522,6.0578,6.0616,6.0586,6.0659,6.0674,6.0708,6.0792,6.083,6.0807,6.0962,6.0913,6.092,6.0924,6.0973,6.099,6.1004,6.0814,6.0813,6.0812,0,0,6.0481,6.0503,6.0567,6.0592,6.0629,6.0636,6.0651,6.0683,6.0692,6.0765,6.0745,6.079,6.0871,6.0897,6.0921,6.1037,6.1018,6.1051,6.1112,6.1162,6.1176,6.1188,6.123,6.1245,6.106,6.1061,6.1061,0,6.0527,6.0604,6.0601,6.066,6.0688,6.0665,6.0731,6.0755,6.0804,6.0824,6.0798,6.0901,6.0922,6.1013,6.1042,6.1061,6.108,6.1047,6.1174,6.1186,6.1197,6.1238,6.1253,6.1064,6.1064,6.1064,6.1063,0,6.066,6.0714,6.0761,6.0811,6.0845,6.0906,6.0914,6.0948,6.0942,6.0952,6.1027,6.1053,6.1103,6.1124,6.1118,6.1215,6.12,6.1174,6.1127,6.1217,6.1255,6.1271,6.107,6.1069,6.1067,6.1066,0,0,6.079,6.084,6.0857,6.0881,6.0921,6.0963,6.1024,6.1075,6.1105,6.114,6.1192,6.1263,6.124,6.1267,6.1264,6.1308,6.1401,6.1277,6.1278,6.13,6.1511,6.1531,6.1549,6.1389,6.1392,6.1394,6.1509,0,6.0895,6.1003,6.1004,6.1103,6.1154,6.1135,6.1189,6.122,6.1232,6.1277,6.129,6.134,6.1306,6.1323,6.1365,6.138,6.1443,6.1372,6.1438,6.144,6.143,6.1569,6.1589,6.1695,6.1524,6.1526,6.1528,0,6.1031,6.1073,6.1178,6.1214,6.1235,6.1284,6.1331,6.1375,6.141,6.1416,6.1448,6.1439,6.1503,6.1455,6.1543,6.1495,6.1522,6.1534,6.1538,6.1544,6.1489,6.1579,6.1729,6.1746,6.1551,6.1549,6.1548,0,6.1117,6.1199,6.1274,6.1294,6.1337,6.1372,6.1392,6.1424,6.1456,6.1497,6.1518,6.1566,6.1593,6.1631,6.1636,6.16,6.1726,6.1677,6.1733,6.1733,6.1759,6.1758,6.1917,6.1777,6.1776,6.1776,6.1776,0,6.1234,6.13,6.1313,6.1359,6.1432,6.1433,6.1506,6.1523,6.1553,6.1602,6.1588,6.1634,6.1638,6.1686,6.169,6.1764,6.1776,6.1783,6.1783,6.1784,6.1784,6.1802,6.1795,6.178,6.1779,6.1779,6.1778,0,6.1342,6.1353,6.1433,6.1469,6.1479,6.1532,6.1562,6.1606,6.1618,6.168,6.1695,6.1713,6.1769,6.1778,6.1844,6.1847,6.1936,6.1928,6.1924,6.1923,6.1979,6.1974,6.2155,6.218,6.2023,6.2025,6.2026,0,6.1416,6.1466,6.1508,6.1541,6.1562,6.1614,6.1647,6.1651,6.1685,6.1732,6.1771,6.1826,6.187,6.1961,6.198,6.2031,6.2025,6.2085,6.2032,6.2032,6.2027,6.2024,6.203,6.2095,6.2097,6.2098,6.2099,0,6.1547,6.1551,6.1599,6.165,6.1689,6.1729,6.1766,6.1794,6.1803,6.1842,6.19,6.1935,6.2003,6.2059,6.211,6.213,6.2117,6.2116,6.2132,6.2133,6.2129,6.2133,6.1952,6.2111,6.211,6.2109,6.2109,6.2108,6.1641,6.1686,6.1723,6.1777,6.1806,6.1843,6.1887,6.1905,6.1953,6.201,6.2009,6.2073,6.211,6.2178,6.2202,6.2253,6.2233,6.2256,6.2261,6.2267,6.2273,6.2122,6.2262,6.2261,6.2261,6.2261,6.2261,0,6.1773,6.1796,6.1846,6.19,6.1944,6.1928,6.197,6.2007,6.2064,6.21,6.2144,6.2212,6.2267,6.2291,6.2345,6.2381,6.2377,6.2395,6.2393,6.2398,6.2287,6.2268,6.2398,6.2398,6.2398,6.2398,6.2398,6.2398,6.1846,6.1922,6.1931,6.2021,6.2044,6.2108,6.2133,6.2167,6.2196,6.2273,6.2318,6.2334,6.2366,6.2423,6.2473,6.2478,6.2499,6.2521,6.2524,6.242,6.2406,6.2392,6.2375,6.2525,6.2526,6.2631,6.2632,6.2633]},{"header":{"parameterUnit":"m.s-1","parameterCategory":1,"la1":30.2991,"la2":30.254,"lo1":-89.0895,"lo2":-89.0444,"dy":0.0017,"dx":0.0017,"nx":28,"ny":28,"refTime":"2025-03-20T03:00:00:Z","depth":0,"parameterNumber":3,"parameterNumberName":"V-component_of_WINDS"},"data":[0,0,0,0,0,0,0,0,0,0,0,0,0,0,0,0,0,0,0,0,0,0,0,0,0,0,0,0,0,0,0,0,0,0,0,0,0,0,0,0,0,0,0,0,0,0,0,0,0,0,0,0,0,0,0,0,0,0,-5.6948,-5.6949,0,-5.7025,-5.7026,-5.7026,-5.7025,-5.7024,-5.7023,-5.7022,-5.7097,-5.7099,-5.7102,0,0,0,0,0,0,0,0,0,0,0,0,0,-5.6799,-5.6801,-5.6948,-5.6949,-5.695,-5.7025,-5.7026,-5.7027,-5.7025,-5.7024,-5.7022,-5.7021,-5.7096,-5.7099,-5.7103,0,0,0,0,0,0,0,0,0,0,0,0,0,-5.6868,-5.6802,-5.6948,-5.6958,-5.696,-5.7024,-5.7026,-5.7027,-5.7025,-5.7024,-5.7022,-5.7021,-5.7094,-5.7099,-5.7103,-5.7161,0,0,-5.7117,-5.7118,0,0,0,0,0,0,0,0,-5.6864,-5.6874,-5.6956,-5.6958,-5.696,-5.7014,-5.7,-5.7072,-5.7026,-5.7,-5.7022,-5.702,-5.707,-5.7076,-5.7094,-5.7165,-5.7168,-5.7117,-5.712,-5.7122,-5.7123,0,0,0,0,0,0,0,-5.6859,-5.687,-5.6978,-5.6957,-5.6959,-5.6959,-5.6967,-5.7014,-5.7043,-5.7002,-5.7002,-5.7012,-5.7071,-5.709,-5.7096,-5.7169,-5.7117,-5.7121,-5.7123,-5.7125,-5.7294,-5.7295,0,0,0,0,0,0,-5.6853,-5.6866,-5.6976,-5.6981,-5.6907,-5.6962,-5.6972,-5.6998,-5.7042,-5.7048,-5.7013,-5.7011,-5.7083,-5.7091,-5.7098,-5.7171,-5.7122,-5.7126,-5.7128,-5.7292,-5.7294,-5.7296,0,0,0,0,0,0,-5.685,-5.6863,-5.6973,-5.6924,-5.6938,-5.6967,-5.6996,-5.7,-5.7019,-5.705,-5.7055,-5.7027,-5.7082,-5.7092,-5.7146,-5.7173,-5.7128,-5.7132,-5.729,-5.7293,-5.7295,-5.7315,0,0,0,0,0,0,-5.6845,-5.6861,-5.6884,-5.6924,-5.694,-5.702,-5.6998,-5.7003,-5.7027,-5.7026,-5.7065,-5.707,-5.7082,-5.714,-5.7151,-5.7178,-5.7135,-5.7287,-5.7291,-5.7294,-5.7312,-5.7318,-5.7323,0,0,0,0,0,-5.684,-5.6885,-5.6885,-5.6898,-5.6969,-5.7021,-5.7031,-5.7044,-5.7029,-5.7052,-5.7073,-5.7069,-5.7169,-5.7145,-5.7158,-5.7187,-5.7286,-5.729,-5.7294,-5.7309,-5.7317,-5.7323,0,0,0,0,0,0,-5.6845,-5.689,-5.6891,-5.695,-5.6983,-5.7021,-5.705,-5.7051,-5.7087,-5.7084,-5.7098,-5.7107,-5.7162,-5.718,-5.7153,-5.7247,-5.7225,-5.7232,-5.7233,-5.724,-5.7246,-5.724,-5.7139,0,0,0,0,0,-5.6854,-5.6893,-5.693,-5.6979,-5.6996,-5.702,-5.7043,-5.7052,-5.7085,-5.7098,-5.7122,-5.7153,-5.7192,-5.7217,-5.7254,-5.7315,-5.7324,-5.7342,-5.7347,-5.7352,-5.7357,-5.7392,-5.7401,-5.731,-5.7309,-5.7309,0,0,-5.687,-5.69,-5.6924,-5.6981,-5.7007,-5.7047,-5.7031,-5.7074,-5.7104,-5.7104,-5.7157,-5.7177,-5.7213,-5.7271,-5.7298,-5.7288,-5.7385,-5.7357,-5.736,-5.7363,-5.7397,-5.7406,-5.7414,-5.7312,-5.7312,-5.7311,0,0,-5.6922,-5.6949,-5.6994,-5.7021,-5.7061,-5.7077,-5.7088,-5.7128,-5.7141,-5.7195,-5.7196,-5.7232,-5.7298,-5.7325,-5.7347,-5.7412,-5.741,-5.7424,-5.7453,-5.7487,-5.7494,-5.7501,-5.7525,-5.7533,-5.7429,-5.743,-5.743,0,-5.6938,-5.7,-5.7016,-5.706,-5.7086,-5.709,-5.7135,-5.716,-5.721,-5.7227,-5.7216,-5.7301,-5.7325,-5.739,-5.7407,-5.7424,-5.7437,-5.7419,-5.7492,-5.7499,-5.7505,-5.7528,-5.7537,-5.7431,-5.7431,-5.7431,-5.7431,0,-5.7018,-5.7061,-5.7092,-5.7143,-5.7172,-5.7216,-5.7239,-5.7267,-5.7273,-5.7291,-5.7347,-5.7377,-5.7422,-5.7438,-5.7443,-5.7505,-5.7498,-5.7489,-5.7468,-5.7515,-5.7537,-5.7546,-5.7433,-5.7433,-5.7432,-5.7432,0,0,-5.7073,-5.7134,-5.7145,-5.7169,-5.7215,-5.7248,-5.7294,-5.7339,-5.7363,-5.7398,-5.7436,-5.7494,-5.7487,-5.7512,-5.7521,-5.7551,-5.7603,-5.7539,-5.754,-5.755,-5.7674,-5.768,-5.769,-5.7602,-5.7604,-5.7606,-5.7671,0,-5.713,-5.7212,-5.7229,-5.73,-5.734,-5.7346,-5.7386,-5.7418,-5.7437,-5.7474,-5.7494,-5.7535,-5.7523,-5.7538,-5.7568,-5.759,-5.7628,-5.7586,-5.7638,-5.764,-5.7629,-5.7702,-5.7708,-5.7768,-5.768,-5.7681,-5.7682,0,-5.7207,-5.7247,-5.7322,-5.7365,-5.7383,-5.7418,-5.7462,-5.7498,-5.7535,-5.7547,-5.7577,-5.7583,-5.7631,-5.7608,-5.7674,-5.7645,-5.7668,-5.7682,-5.7685,-5.769,-5.7664,-5.7709,-5.7787,-5.7797,-5.7696,-5.7695,-5.7694,0,-5.7241,-5.7312,-5.7367,-5.7387,-5.7439,-5.7464,-5.7486,-5.7522,-5.7549,-5.7588,-5.7606,-5.7648,-5.7672,-5.7705,-5.7723,-5.7705,-5.7788,-5.7767,-5.7799,-5.7799,-5.7816,-5.7814,-5.7899,-5.7831,-5.783,-5.783,-5.783,0,-5.7303,-5.7349,-5.7384,-5.7417,-5.7469,-5.7489,-5.754,-5.7562,-5.7595,-5.7633,-5.764,-5.7675,-5.7697,-5.7736,-5.775,-5.7804,-5.7814,-5.7825,-5.7828,-5.7824,-5.7823,-5.7839,-5.7835,-5.7833,-5.7832,-5.7832,-5.7831,0,-5.7349,-5.7374,-5.7434,-5.7479,-5.7492,-5.7528,-5.7566,-5.7599,-5.7619,-5.7668,-5.768,-5.7711,-5.7757,-5.7779,-5.7835,-5.7845,-5.7906,-5.7906,-5.7894,-5.7895,-5.7927,-5.7924,-5.8025,-5.8039,-5.7961,-5.7961,-5.7962,0,-5.7386,-5.7422,-5.7472,-5.7499,-5.7523,-5.7566,-5.7594,-5.7616,-5.7645,-5.7692,-5.772,-5.7767,-5.7805,-5.7879,-5.7906,-5.795,-5.7951,-5.7984,-5.7958,-5.7953,-5.7952,-5.795,-5.7954,-5.7988,-5.7989,-5.7989,-5.799,0,-5.7451,-5.7463,-5.7504,-5.7551,-5.7585,-5.7623,-5.7659,-5.768,-5.7708,-5.774,-5.7789,-5.7819,-5.7879,-5.7925,-5.7972,-5.7994,-5.7997,-5.7998,-5.8008,-5.8005,-5.7996,-5.8002,-5.7907,-5.7996,-5.7995,-5.7995,-5.7994,-5.7994,-5.7495,-5.7528,-5.7569,-5.7615,-5.7646,-5.7681,-5.7715,-5.774,-5.7781,-5.7833,-5.7843,-5.7894,-5.7933,-5.7996,-5.802,-5.8061,-5.8053,-5.8067,-5.8071,-5.8074,-5.8076,-5.799,-5.8069,-5.8069,-5.8069,-5.8069,-5.8069,0,-5.756,-5.7588,-5.7631,-5.7683,-5.772,-5.7722,-5.7763,-5.7794,-5.784,-5.7876,-5.7915,-5.7972,-5.8018,-5.805,-5.8097,-5.8123,-5.8126,-5.8135,-5.8133,-5.8138,-5.808,-5.8067,-5.8132,-5.8132,-5.8132,-5.8132,-5.8132,-5.8132,-5.7599,-5.7656,-5.7673,-5.7745,-5.7772,-5.7824,-5.7848,-5.788,-5.791,-5.7973,-5.8013,-5.8034,-5.8069,-5.8119,-5.8161,-5.817,-5.8187,-5.8196,-5.8204,-5.8149,-5.8142,-5.8136,-5.8124,-5.82,-5.82,-5.8259,-5.826,-5.826]}]]